Weather History for KUKI - October, 2012

Change the Weather History Date:

Wednesday, October 24, 2012

  Actual Average Record
Temperature  
Mean Temperature 53 °F 58 °F  
Max Temperature 57 °F 73 °F 96 °F (1959)
Min Temperature 48 °F 42 °F 28 °F (1919)
Degree Days  
Heating Degree Days 14 7  
Month to date heating degree days 107  
Since 1 July heating degree days 140  
Cooling Degree Days 0 0  
Month to date cooling degree days 19  
Year to date cooling degree days 832  
Growing Degree Days 2 (Base 50)    
Moisture  
Dew Point 47 °F    
Average Humidity 83    
Maximum Humidity 93    
Minimum Humidity 72    
Precipitation  
Precipitation 0.25 in 0.10 in 3.27 in (2010)
Month to date precipitation 1.55 1.13  
Year to date precipitation 20.47 25.10  
Since 1 July precipitation 1.55 1.72  
Snow  
Snow 0.00 in - - ()
Month to date snowfall 0.0  
Since 1 July snowfall 0.0  
Since 1 September snowfall 0.0  
Snow Depth -    
Sea Level Pressure  
Sea Level Pressure 30.11 in    
Wind  
Wind Speed 2 mph (NNW)    
Max Wind Speed 13 mph    
Max Gust Speed 15 mph    
Visibility 9 miles    
Events Rain    
T = Trace of Precipitation, MM = Missing Value Source: NWS Daily Summary

Daily Weather History Graph

Daily Weather History Graph

Search for Another Location

Airport or City:

Trip Planner

Search our weather history database for the weather conditions in past years. The results will help you decide how hot, cold, wet, or windy it might be!

Date:

Astronomy

Oct. 24, 2012 Rise Set
Actual Time 7:32 AM PDT 6:20 PM PDT
Civil Twilight 7:05 AM PDT 6:48 PM PDT
Nautical Twilight 6:33 AM PDT 7:19 PM PDT
Astronomical Twilight 6:02 AM PDT 7:50 PM PDT
Moon 3:37 PM PDT (10/24) 2:35 AM PDT (10/24)
Length of Visible Light 11h 43m
Length of Day
10h 48m
Waxing Gibbous, 77% of the Moon is Illuminated
Oct 24
Waxing Gibbous
Oct 29
Full
Nov 6
Last Quarter
Nov 13
New
Nov 20
First Quarter

Hourly Weather History & Observations

Time (PDT) Temp. Dew Point Humidity Pressure Visibility Wind Dir Wind Speed Gust Speed Precip Events Conditions
12:10 AM 48.2 °F 46.4 °F 93% 30.00 in 10.0 mi West 3.5 mph - 0.00 in Rain Light Rain
12:56 AM 48.9 °F 46.0 °F 90% 29.99 in 6.0 mi Calm Calm - 0.04 in Rain Light Rain
1:56 AM 48.0 °F 46.0 °F 93% 30.00 in 10.0 mi NW 3.5 mph - 0.02 in   Overcast
2:56 AM 48.0 °F 46.0 °F 93% 30.01 in 10.0 mi North 3.5 mph - N/A   Overcast
3:56 AM 48.0 °F 46.0 °F 93% 30.01 in 10.0 mi NW 3.5 mph - N/A   Overcast
4:56 AM 48.9 °F 46.0 °F 90% 30.01 in 10.0 mi Calm Calm - N/A   Overcast
5:56 AM 48.0 °F 45.0 °F 89% 30.03 in 10.0 mi NW 3.5 mph - N/A   Overcast
6:29 AM 48.2 °F 46.4 °F 93% 30.03 in 10.0 mi Calm Calm - N/A   Overcast
6:56 AM 48.9 °F 45.0 °F 86% 30.04 in 10.0 mi Calm Calm - N/A   Overcast
7:56 AM 48.9 °F 46.9 °F 93% 30.05 in 10.0 mi North 3.5 mph - N/A   Overcast
8:56 AM 50.0 °F 46.0 °F 86% 30.08 in 10.0 mi Calm Calm - 0.00 in   Overcast
9:09 AM 50.0 °F 46.4 °F 87% 30.09 in 10.0 mi Calm Calm - N/A   Overcast
9:30 AM 50.0 °F 46.4 °F 87% 30.09 in 10.0 mi Calm Calm - N/A   Overcast
9:56 AM 51.1 °F 46.9 °F 86% 30.09 in 10.0 mi Calm Calm - N/A   Scattered Clouds
10:56 AM 54.0 °F 46.9 °F 77% 30.09 in 10.0 mi Variable 4.6 mph - N/A   Mostly Cloudy
11:56 AM 55.9 °F 46.9 °F 72% 30.09 in 10.0 mi South 6.9 mph - 0.00 in   Overcast
12:43 PM 53.6 °F 48.2 °F 82% 30.11 in 8.0 mi NNW 9.2 mph - 0.00 in Rain Light Rain
12:56 PM 52.0 °F 48.0 °F 86% 30.12 in 4.0 mi NNW 10.4 mph - 0.03 in Rain Rain
1:29 PM 51.8 °F 48.2 °F 88% 30.13 in 4.0 mi North 5.8 mph - 0.04 in Rain Rain
1:39 PM 51.8 °F 48.2 °F 88% 30.13 in 2.5 mi North 6.9 mph - 0.09 in Rain Rain
1:56 PM 51.1 °F 46.9 °F 86% 30.12 in 4.0 mi Calm Calm - 0.13 in Rain Light Rain
2:56 PM 52.0 °F 45.0 °F 77% 30.13 in 10.0 mi Calm Calm - 0.01 in Rain Light Rain
3:12 PM 51.8 °F 44.6 °F 76% 30.13 in 10.0 mi Calm Calm - 0.00 in Rain Light Rain
3:31 PM 51.8 °F 46.4 °F 82% 30.14 in 4.0 mi West 3.5 mph - 0.03 in Rain Light Rain
3:56 PM 51.1 °F 48.0 °F 89% 30.13 in 4.0 mi Calm Calm - 0.06 in Rain Light Rain
4:56 PM 53.1 °F 46.0 °F 77% 30.14 in 10.0 mi Calm Calm - 0.00 in Rain Light Rain
5:56 PM 53.1 °F 48.0 °F 83% 30.14 in 10.0 mi Calm Calm - 0.00 in   Overcast
6:56 PM 50.0 °F 48.0 °F 93% 30.14 in 10.0 mi Calm Calm - N/A   Scattered Clouds
7:56 PM 50.0 °F 48.0 °F 93% 30.16 in 10.0 mi Calm Calm - N/A   Mostly Cloudy
8:56 PM 50.0 °F 48.0 °F 93% 30.17 in 10.0 mi Calm Calm - N/A   Overcast
9:34 PM 50.0 °F 48.2 °F 94% 30.17 in 10.0 mi NNW 3.5 mph - N/A   Overcast
9:56 PM 50.0 °F 48.0 °F 93% 30.18 in 10.0 mi North 3.5 mph - N/A   Overcast
10:30 PM 50.0 °F 48.2 °F 94% 30.19 in 10.0 mi Calm Calm - N/A   Overcast
10:56 PM 50.0 °F 48.0 °F 93% 30.20 in 10.0 mi Calm Calm - 0.01 in   Overcast
11:26 PM 50.0 °F 48.2 °F 94% 30.20 in 10.0 mi Calm Calm - N/A   Overcast
11:44 PM 51.8 °F 48.2 °F 88% 30.21 in 10.0 mi Calm Calm - N/A   Overcast
11:56 PM 50.0 °F 48.0 °F 93% 30.20 in 10.0 mi Calm Calm - N/A   Overcast